• In Netherlands
  • List of Countries
  • For 7 days
  • Water Temperature
  • Satellite Maps
  • Weather Map
  • Weather Widgets
  • user-avatar
    Login

    Hourly Weather Polotsk

    Today, 28 February, Tuesday

    Time Temperature Precipitation Wind Pressure Humidity
    00:00 0°C° 0 mm 3 mps 744 mmHg 98%
    01:00 0°C° 0 mm 3 mps 744 mmHg 98%
    02:00 +1°C° 0 mm 3 mps 744 mmHg 99%
    03:00 0°C° 0 mm 4 mps 743 mmHg 99%
    04:00 0°C° 0 mm 4 mps 743 mmHg 98%
    05:00 0°C° 0 mm 4 mps 743 mmHg 98%
    06:00 0°C° 0 mm 5 mps 742 mmHg 98%
    07:00 0°C° 0 mm 5 mps 742 mmHg 98%
    08:00 -1°C° 0 mm 6 mps 742 mmHg 98%
    09:00 -1°C° 0 mm 6 mps 742 mmHg 96%
    10:00 +1°C° 0 mm 6 mps 741 mmHg 94%
    11:00 0°C° 0 mm 7 mps 741 mmHg 92%
    12:00 +2°C° 0 mm 7 mps 740 mmHg 90%
    13:00 +3°C° 0 mm 7 mps 740 mmHg 88%
    14:00 +4°C° 0 mm 7 mps 740 mmHg 86%
    15:00 +3°C° 0 mm 6 mps 739 mmHg 88%
    16:00 +3°C° 0 mm 6 mps 739 mmHg 90%
    17:00 +2°C° 0 mm 6 mps 739 mmHg 91%
    18:00 +2°C° 0 mm 6 mps 738 mmHg 92%
    19:00 +1°C° 0 mm 6 mps 738 mmHg 93%
    20:00 +1°C° 0 mm 6 mps 738 mmHg 94%
    21:00 +2°C° 0.1 mm 6 mps 738 mmHg 94%
    22:00 +2°C° 0.1 mm 6 mps 737 mmHg 95%
    23:00 +2°C° 0.1 mm 6 mps 737 mmHg 95%

    Tomorrow, 1 March, Wednesday

    Time Temperature Precipitation Wind Pressure Humidity
    00:00 +3°C° 0.1 mm 6 mps 737 mmHg 95%
    01:00 +3°C° 0.1 mm 6 mps 737 mmHg 95%
    02:00 +3°C° 0.1 mm 6 mps 737 mmHg 95%
    03:00 +3°C° 0.1 mm 6 mps 737 mmHg 95%
    04:00 +3°C° 0.1 mm 5 mps 737 mmHg 96%
    05:00 +4°C° 0.1 mm 4 mps 737 mmHg 96%
    06:00 +4°C° 0.3 mm 4 mps 737 mmHg 97%
    07:00 +4°C° 0.3 mm 4 mps 737 mmHg 97%
    08:00 +4°C° 0.3 mm 4 mps 737 mmHg 97%
    09:00 +5°C° 0 mm 5 mps 737 mmHg 95%
    10:00 +5°C° 0 mm 5 mps 737 mmHg 93%
    11:00 +5°C° 0 mm 6 mps 736 mmHg 91%
    12:00 +5°C° 0.1 mm 7 mps 736 mmHg 90%
    13:00 +5°C° 0.1 mm 7 mps 736 mmHg 89%
    14:00 +6°C° 0.1 mm 7 mps 735 mmHg 88%
    15:00 +6°C° 0.3 mm 7 mps 735 mmHg 89%
    16:00 +5°C° 0.3 mm 7 mps 735 mmHg 90%
    17:00 +5°C° 0.3 mm 7 mps 735 mmHg 90%
    18:00 +5°C° 0.5 mm 7 mps 735 mmHg 91%
    19:00 +5°C° 0.5 mm 6 mps 735 mmHg 92%
    20:00 +5°C° 0.5 mm 6 mps 736 mmHg 93%
    21:00 +5°C° 0.3 mm 5 mps 736 mmHg 93%
    22:00 +5°C° 0.3 mm 5 mps 736 mmHg 93%
    23:00 +4°C° 0.3 mm 4 mps 737 mmHg 93%

    Day after tomorrow, 2 March, Thursday

    Time Temperature Precipitation Wind Pressure Humidity
    00:00 +4°C° 0.1 mm 4 mps 737 mmHg 93%
    01:00 +3°C° 0.1 mm 4 mps 737 mmHg 92%
    02:00 +3°C° 0.1 mm 4 mps 738 mmHg 91%
    03:00 +2°C° 0 mm 3 mps 738 mmHg 92%
    04:00 +2°C° 0 mm 3 mps 738 mmHg 93%
    05:00 +1°C° 0 mm 3 mps 738 mmHg 94%
    06:00 +1°C° 0 mm 3 mps 739 mmHg 94%
    07:00 +1°C° 0 mm 3 mps 739 mmHg 95%
    08:00 +1°C° 0 mm 3 mps 739 mmHg 95%
    09:00 +2°C° 0 mm 3 mps 740 mmHg 89%
    10:00 +3°C° 0 mm 4 mps 740 mmHg 84%
    11:00 +4°C° 0 mm 4 mps 740 mmHg 78%
    12:00 +4°C° 0 mm 4 mps 740 mmHg 76%
    13:00 +5°C° 0 mm 5 mps 740 mmHg 73%
    14:00 +6°C° 0 mm 5 mps 739 mmHg 71%
    15:00 +5°C° 0 mm 4 mps 739 mmHg 75%
    16:00 +5°C° 0 mm 4 mps 739 mmHg 79%
    17:00 +4°C° 0 mm 3 mps 739 mmHg 83%
    18:00 +4°C° 0 mm 4 mps 739 mmHg 85%
    19:00 +4°C° 0 mm 4 mps 739 mmHg 87%
    20:00 +3°C° 0 mm 4 mps 738 mmHg 89%
    21:00 +2°C° 0.2 mm 5 mps 738 mmHg 90%
    22:00 +2°C° 0.2 mm 5 mps 737 mmHg 90%
    23:00 +2°C° 0.2 mm 5 mps 737 mmHg 91%

    3 March, Friday

    Time Temperature Precipitation Wind Pressure Humidity
    00:00 +2°C° 0.9 mm 5 mps 736 mmHg 91%
    01:00 +2°C° 0.9 mm 6 mps 736 mmHg 92%
    02:00 +2°C° 0.9 mm 6 mps 735 mmHg 92%
    03:00 +1°C° 0.5 mm 5 mps 735 mmHg 92%
    04:00 +1°C° 0.5 mm 5 mps 735 mmHg 92%
    05:00 +1°C° 0.5 mm 5 mps 735 mmHg 92%
    06:00 0°C° 0.1 mm 5 mps 735 mmHg 91%
    07:00 -1°C° 0.1 mm 6 mps 736 mmHg 91%
    08:00 -1°C° 0.1 mm 6 mps 736 mmHg 91%
    09:00 -1°C° 0.1 mm 6 mps 737 mmHg 89%
    10:00 0°C° 0.1 mm 7 mps 738 mmHg 86%
    11:00 0°C° 0.1 mm 7 mps 739 mmHg 84%
    12:00 +1°C° 0.1 mm 8 mps 739 mmHg 82%
    13:00 +1°C° 0.1 mm 8 mps 740 mmHg 80%
    14:00 +1°C° 0.1 mm 8 mps 741 mmHg 78%
    15:00 +2°C° 0 mm 7 mps 741 mmHg 80%
    16:00 +1°C° 0 mm 6 mps 742 mmHg 82%
    17:00 +1°C° 0 mm 5 mps 742 mmHg 84%
    18:00 +1°C° 0.2 mm 5 mps 742 mmHg 87%
    19:00 +1°C° 0.2 mm 5 mps 742 mmHg 89%
    20:00 0°C° 0.2 mm 5 mps 742 mmHg 91%
    21:00 0°C° 0.2 mm 5 mps 742 mmHg 91%
    22:00 +1°C° 0.2 mm 5 mps 742 mmHg 92%
    23:00 +1°C° 0.2 mm 6 mps 743 mmHg 92%

    4 March, Saturday

    Time Temperature Precipitation Wind Pressure Humidity
    00:00 +1°C° 0 mm 5 mps 743 mmHg 92%
    01:00 0°C° 0 mm 5 mps 743 mmHg 92%
    02:00 0°C° 0 mm 5 mps 744 mmHg 92%
    03:00 0°C° 0 mm 4 mps 744 mmHg 93%
    04:00 -1°C° 0 mm 4 mps 745 mmHg 94%
    05:00 0°C° 0 mm 3 mps 745 mmHg 95%
    06:00 0°C° 0 mm 3 mps 745 mmHg 95%
    07:00 0°C° 0 mm 3 mps 746 mmHg 95%
    08:00 +1°C° 0 mm 2 mps 746 mmHg 95%
    09:00 +2°C° 0 mm 2 mps 746 mmHg 90%
    10:00 +3°C° 0 mm 2 mps 746 mmHg 86%
    11:00 +4°C° 0 mm 2 mps 747 mmHg 81%
    12:00 +4°C° 0 mm 3 mps 746 mmHg 79%
    13:00 +5°C° 0 mm 3 mps 746 mmHg 78%
    14:00 +5°C° 0 mm 3 mps 746 mmHg 76%
    15:00 +5°C° 0 mm 3 mps 746 mmHg 79%
    16:00 +4°C° 0 mm 4 mps 746 mmHg 83%
    17:00 +4°C° 0 mm 4 mps 746 mmHg 87%
    18:00 +4°C° 0.1 mm 4 mps 746 mmHg 89%
    19:00 +3°C° 0.1 mm 4 mps 746 mmHg 91%
    20:00 +3°C° 0.1 mm 4 mps 746 mmHg 93%
    21:00 +3°C° 0.3 mm 4 mps 745 mmHg 94%
    22:00 +3°C° 0.3 mm 4 mps 745 mmHg 94%
    23:00 +1°C° 0.3 mm 4 mps 745 mmHg 95%

    5 March, Sunday

    Time Temperature Precipitation Wind Pressure Humidity
    00:00 +1°C° 0.1 mm 4 mps 745 mmHg 95%
    01:00 +1°C° 0.1 mm 4 mps 745 mmHg 96%
    02:00 +1°C° 0.1 mm 4 mps 744 mmHg 96%
    03:00 +1°C° 0 mm 4 mps 744 mmHg 96%
    04:00 +1°C° 0 mm 4 mps 744 mmHg 96%
    05:00 +1°C° 0 mm 4 mps 744 mmHg 96%
    06:00 +3°C° 0 mm 4 mps 744 mmHg 96%
    07:00 +3°C° 0 mm 4 mps 744 mmHg 96%
    08:00 +3°C° 0 mm 4 mps 744 mmHg 96%
    09:00 +3°C° 0 mm 4 mps 744 mmHg 94%
    10:00 +3°C° 0 mm 5 mps 744 mmHg 92%
    11:00 +5°C° 0 mm 5 mps 744 mmHg 90%
    12:00 +5°C° 0 mm 5 mps 744 mmHg 90%
    13:00 +5°C° 0 mm 5 mps 744 mmHg 89%
    14:00 +6°C° 0 mm 5 mps 744 mmHg 88%
    15:00 +6°C° 0 mm 5 mps 745 mmHg 91%
    16:00 +6°C° 0 mm 4 mps 745 mmHg 93%
    17:00 +7°C° 0 mm 3 mps 745 mmHg 95%
    18:00 +5°C° 0 mm 3 mps 745 mmHg 95%
    19:00 +5°C° 0 mm 3 mps 745 mmHg 96%
    20:00 +5°C° 0 mm 3 mps 745 mmHg 97%
    21:00 +5°C° 0 mm 3 mps 745 mmHg 97%
    22:00 +5°C° 0 mm 3 mps 745 mmHg 97%
    23:00 +5°C° 0 mm 3 mps 745 mmHg 97%
    Show more